Weather History for Park Rapids, MN

Change the Weather History Date:

Sunday, September 16, 2012

  Actual Average Record
Temperature  
Mean Temperature 58 °F -  
Max Temperature 73 °F 68 °F 85 °F (1979)
Min Temperature 45 °F 44 °F 32 °F (1970)
Degree Days  
Heating Degree Days 6    
Growing Degree Days 8 (Base 50)    
Moisture  
Dew Point 41 °F    
Average Humidity 57    
Maximum Humidity 86    
Minimum Humidity 26    
Precipitation  
Precipitation 0.00 in - - ()
Sea Level Pressure  
Sea Level Pressure 29.95 in    
Wind  
Wind Speed 7 mph (NNW)    
Max Wind Speed 16 mph    
Max Gust Speed 23 mph    
Visibility 10 miles    
Events Rain    
Averages and records for this station are not official NWS values.
T = Trace of Precipitation, MM = Missing Value Source: NWS Daily Summary

Daily Weather History Graph

Daily Weather History Graph

Search for Another Location

Airport:

Trip Planner

Search our weather history database for the weather conditions in past years. The results will help you decide how hot, cold, wet, or windy it might be!

Date:

Astronomy

Sep. 16, 2012 Rise Set
Actual Time 6:59 AM CDT 7:28 PM CDT
Civil Twilight 6:29 AM CDT 7:59 PM CDT
Nautical Twilight 5:53 AM CDT 8:35 PM CDT
Astronomical Twilight 5:15 AM CDT 9:12 PM CDT
Moon 7:46 AM CDT (9/16) 7:25 PM CDT (9/16)
Length of Visible Light 13h 30m
Length of Day
12h 29m
New Moon, 0% of the Moon is Illuminated
Sep 16
New Moon
Sep 22
First Quarter
Sep 29
Full
Oct 8
Last Quarter
Oct 15
New

Hourly Weather History & Observations

Time (CDT) Temp. Windchill Dew Point Humidity Pressure Visibility Wind Dir Wind Speed Gust Speed Precip Events Conditions
12:53 AM 59.0 °F - 46.0 °F 62% 29.83 in 10.0 mi Calm Calm - N/A   Clear
1:53 AM 57.0 °F - 45.0 °F 64% 29.83 in 10.0 mi SSE 3.5 mph - N/A   Clear
2:53 AM 55.9 °F - 45.0 °F 67% 29.83 in 10.0 mi Calm Calm - N/A   Clear
3:53 AM 50.0 °F - 44.1 °F 80% 29.83 in 10.0 mi Calm Calm - N/A   Clear
4:53 AM 48.0 °F - 42.1 °F 80% 29.85 in 10.0 mi Calm Calm - N/A   Clear
5:53 AM 45.0 °F 43.5 °F 41.0 °F 86% 29.87 in 10.0 mi NW 3.5 mph - N/A   Clear
6:53 AM 55.4 °F - 48.2 °F 77% 29.89 in 10.0 mi North 12.7 mph - N/A   Clear
7:53 AM 55.9 °F - 48.0 °F 75% 29.91 in 10.0 mi North 15.0 mph - N/A   Clear
8:53 AM 59.0 °F - 45.0 °F 60% 29.94 in 10.0 mi North 16.1 mph 23.0 mph N/A   Clear
9:53 AM 61.0 °F - 43.0 °F 52% 29.96 in 10.0 mi North 12.7 mph 19.6 mph N/A   Clear
10:53 AM 64.9 °F - 41.0 °F 42% 29.97 in 10.0 mi North 11.5 mph 23.0 mph N/A   Clear
11:53 AM 68.0 °F - 39.0 °F 35% 29.97 in 10.0 mi North 13.8 mph 20.7 mph N/A   Clear
12:53 PM 70.0 °F - 39.0 °F 32% 29.95 in 10.0 mi North 9.2 mph - N/A   Clear
1:53 PM 71.1 °F - 36.0 °F 28% 29.95 in 10.0 mi North 12.7 mph - N/A   Clear
2:53 PM 72.0 °F - 35.1 °F 26% 29.96 in 10.0 mi North 10.4 mph - N/A   Clear
3:53 PM 66.9 °F - 36.0 °F 32% 29.98 in 10.0 mi NNW 16.1 mph - N/A   Mostly Cloudy
4:53 PM 62.1 °F - 37.9 °F 41% 30.01 in 10.0 mi NNW 11.5 mph - N/A   Overcast
5:53 PM 60.1 °F - 37.0 °F 42% 30.03 in 10.0 mi NNW 13.8 mph - 0.00 in   Overcast
6:53 PM 54.0 °F - 41.0 °F 62% 30.04 in 10.0 mi NW 11.5 mph - 0.00 in Rain Light Rain
7:53 PM 51.1 °F - 42.1 °F 71% 30.05 in 10.0 mi NNW 6.9 mph - 0.00 in   Overcast
8:53 PM 51.1 °F - 42.1 °F 71% 30.06 in 10.0 mi NW 6.9 mph - N/A   Overcast
9:53 PM 51.1 °F - 39.9 °F 66% 30.06 in 10.0 mi NNW 6.9 mph - 0.00 in   Mostly Cloudy
10:53 PM 51.1 °F - 39.0 °F 63% 30.06 in 10.0 mi NNW 9.2 mph - 0.00 in   Overcast
11:53 PM 51.1 °F - 37.0 °F 59% 30.04 in 10.0 mi North 11.5 mph - N/A   Partly Cloudy